Simultaneous Nadir Overpasses (SNOs) Predictions

Prediction of SNOs between AQUA and NPP Satellite Orbit:

Table of predicted SNOs for the next 14.0 days since TLE Epoch: 11/2/2024
Index Date (AQUA) Time (AQUA) Lat,Lon (AQUA) SZA (AQUA ) Date (NPP) Time (NPP) Lat,Lon (NPP) SZA (NPP ) Distance(km) Time Diff (sec)
1 11/02/2024 17:44:21 -81.29, 21.55 78.33 11/02/2024 17:43:14 -81.29, 21.55 78.29 0.13 67
2 11/02/2024 18:33:40 81.30,-170.55 101.66 11/02/2024 18:33:58 81.30,-170.68 101.67 2.22 18
3 11/05/2024 04:56:33 -81.30,-146.36 77.59 11/05/2024 04:55:39 -81.29,-146.45 77.55 1.66 54
4 11/05/2024 05:45:52 81.30, 21.48 102.40 11/05/2024 05:46:23 81.30, 21.30 102.41 3.12 31
5 11/07/2024 16:08:40 -81.30, 45.81 76.89 11/07/2024 16:08:02 -81.30, 45.75 76.86 1.17 38
6 11/07/2024 16:57:59 81.31,-146.40 103.11 11/07/2024 16:58:46 81.30,-146.51 103.10 2.01 47
7 11/10/2024 03:20:45 -81.29,-122.33 76.18 11/10/2024 03:20:26 -81.30,-122.22 76.18 1.96 19
8 11/10/2024 04:10:04 81.30, 45.41 103.83 11/10/2024 04:11:10 81.30, 45.50 103.78 1.58 66
9 11/12/2024 14:32:45 -81.31, 69.99 75.54 11/12/2024 14:32:49 -81.30, 70.03 75.55 0.98 4
10 11/15/2024 00:55:22 81.29, 93.99 105.15 11/15/2024 00:54:29 81.30, 94.03 105.17 1.01 53



Historial Predications of SNOs between AQUA and NPP
